sat.trackr.live / text

‹ back to catalog

STARLINK-31733

NORAD 59486 · 2024-071C

PAYLOAD ACTIVE UNKNOWN

§ Identity

Operator
Country
US
Launch date
2024-04-13
Launch site
AFETR
Launch vehicle
Mass (kg)
RCS (m²)

Purposes: comms

External: N2YO · Heavens-Above · Gunter

§ Orbital elements

Epoch: 2026-09-21T03:48:16.831296Z

Period
94.27 min
Inclination
43.0026°
Eccentricity
0.0001531
Mean motion
15.27577669 rev/d
Perigee alt
482.0 km
Apogee alt
484.1 km
Semi-major
6,861.2 km
B*
1.7145e-5
RAAN
315.5312°
Arg perigee
267.3953°
Mean anomaly
92.6724°
Rev number
13,810

§ Raw data

STARLINK-317331 59486U 24071C   26264.15852814  .00000210  00000+0  17145-4 0  99942 59486  43.0026 315.5312 0001531 267.3953  92.6724 15.27577669138102

JSON: /api/v1/satellites/59486 · /tle

For live sub-satellite position, see the globe view (requires WebGL).

§ Visibility from observer

Set your observer location to see the next 7 days of passes ≥ 10°. The values pass through the URL so the page stays shareable.

No JS? Fill the form by hand. The geolocation button needs JavaScript.